Tracking 31027 objects as of 19-Jul-2025
HD Live streaming from Space Station
objects crossing your sky now

FLOCK 4Q 16

Track FLOCK 4Q 16 now!
10-day predictions
FLOCK 4Q 16 is classified as:


NORAD ID: 58271
Int'l Code: 2023-174R
Perigee: 467.0 km
Apogee: 476.5 km
Inclination: 97.4 °
Period: 93.9 minutes
Semi major axis: 6842 km
RCS: Unknown
Launch date: November 11, 2023
Source: United States (US)
Launch site: AIR FORCE WESTERN TEST RANGE (AFWTR)
Your satellite tracking list
COSMOS 628
Track 1 satellite(s)




NASA's NSSDC Master Catalog

Two Line Element Set (TLE):
1 58271U 23174R   25199.46278923  .00010253  00000-0  31626-3 0  9999
2 58271  97.4132 278.3353 0006970 281.8859  78.1602 15.33752279 94174
Source of the keplerian elements: AFSPC